Waarnemingen

Advertentie
Mijn weer
Valladolid, Spanje (8141): temperatuur & dauwpunt: 16.09.2020 13:00:00 - 22.09.2020 13:00:00 (CEST)Valladolid, Spanje (8141): windsnelheid: 16.09.2020 13:00:00 - 22.09.2020 13:00:00 (CEST)Valladolid, Spanje (8141): windrichting: 16.09.2020 13:00:00 - 22.09.2020 13:00:00 (CEST)Valladolid, Spanje (8141): luchtdruk: 16.09.2020 13:00:00 - 22.09.2020 13:00:00 (CEST)Valladolid, Spanje (8141): zicht: 16.09.2020 13:00:00 - 22.09.2020 13:00:00 (CEST)Valladolid, Spanje (8141): neerslag: 16.09.2020 13:00:00 - 22.09.2020 13:00:00 (CEST)
Datum & Tijd tt [°C] td [°C] ff [km/u] ff [kn] dd ppp [hPa] vv [km] rr [mm]
22.09.2020 13:00:00 - - - - - - - -
22.09.2020 12:00:00 16,4 12,2 5 3 W 1016,5 20 0,0
22.09.2020 11:00:00 15,1 11,9 4 2 WNW 1016,8 20 -
22.09.2020 10:00:00 13,2 10,2 4 2 ZZW 1017,2 20 0,0
22.09.2020 09:00:00 11,1 9,8 4 2 Z 1017,7 20 0,0
22.09.2020 08:00:00 10,0 8,8 2 1 NNO 1017,6 18 -
22.09.2020 07:00:00 10,7 9,1 4 2 ZZO 1017,3 20 0,0
22.09.2020 06:00:00 11,1 9,4 2 1 Z 1017,1 20 0,0
22.09.2020 05:00:00 11,5 9,2 2 1 ZO 1017,2 15 -
22.09.2020 04:00:00 12,2 9,2 2 1 OZO 1017,4 20 0,0
22.09.2020 03:00:00 12,6 9,1 2 1 N 1017,8 20 0,0
22.09.2020 02:00:00 13,1 9,2 4 2 ZO 1017,9 15 -
22.09.2020 01:00:00 13,6 8,6 4 2 W 1018,0 20 0,0
22.09.2020 00:00:00 14,3 8,9 4 2 NW 1017,9 20 0,0
21.09.2020 23:00:00 15,1 7,6 2 1 WZW 1017,6 20 -
21.09.2020 22:00:00 16,1 8,1 5 3 W 1017,3 20 0,0
21.09.2020 21:00:00 17,8 8,9 4 2 ZW 1016,3 20 0,0
21.09.2020 20:00:00 19,7 8,7 5 3 W 1015,8 30 -
21.09.2020 19:00:00 20,9 7,8 4 2 ZW 1015,3 20 0,0
21.09.2020 18:00:00 21,7 8,9 4 2 ZZO 1015,1 20 0,0
21.09.2020 17:00:00 21,8 9,3 4 2 W 1015,2 30 -
21.09.2020 16:00:00 22,0 9,5 4 2 Z 1015,6 20 0,0
21.09.2020 15:00:00 21,1 11,1 4 2 Z 1016,6 20 0,0
21.09.2020 14:00:00 19,5 12,0 5 3 WZW 1017,6 30 -
21.09.2020 13:00:00 18,1 12,8 5 3 WZW 1018,5 20 0,0
21.09.2020 12:00:00 15,9 12,3 5 3 ZW 1019,4 20 0,0
21.09.2020 11:00:00 14,6 12,6 4 2 Z 1019,6 15 -
21.09.2020 10:00:00 13,6 12,3 5 3 Z 1019,5 20 0,0
21.09.2020 09:00:00 12,9 12,0 5 3 Z 1019,6 20 0,0
21.09.2020 08:00:00 13,2 12,3 4 2 Z 1018,9 20 -
21.09.2020 07:00:00 13,3 12,4 5 3 ZZW 1018,7 20 0,0
21.09.2020 06:00:00 13,6 13,0 2 1 ZO 1018,4 20 0,0
21.09.2020 05:00:00 13,6 12,8 2 1 Z 1018,4 20 -
21.09.2020 04:00:00 14,1 12,8 4 2 WZW 1018,2 20 0,0
21.09.2020 03:00:00 14,6 13,5 4 2 W 1018,7 20 0,0
21.09.2020 02:00:00 14,7 13,4 0 0 N 1018,8 20 -
21.09.2020 01:00:00 15,1 13,3 4 2 W 1018,5 20 0,0
21.09.2020 00:00:00 15,7 13,4 2 1 NW 1018,2 20 0,0
20.09.2020 23:00:00 15,7 13,5 2 1 W 1018,3 20 -
20.09.2020 22:00:00 16,1 14,1 5 3 W 1017,6 20 0,0
20.09.2020 21:00:00 16,5 14,0 4 2 WNW 1016,9 20 0,0
20.09.2020 20:00:00 17,6 14,1 9 5 W 1016,1 30 -
20.09.2020 19:00:00 17,8 14,9 4 2 WNW 1015,6 20 0,0
20.09.2020 18:00:00 17,7 15,5 11 6 NW 1015,1 15 0,8
20.09.2020 17:00:00 21,2 14,1 11 6 WNW 1013,7 25 -
20.09.2020 16:00:00 21,3 14,5 11 6 WZW 1014,0 19 0,0
20.09.2020 15:00:00 19,9 15,3 9 5 WZW 1014,9 20 0,0
20.09.2020 14:00:00 18,9 14,2 13 7 WZW 1015,7 60 -
20.09.2020 13:00:00 18,8 13,9 11 6 W 1015,9 20 0,0
20.09.2020 12:00:00 17,2 15,0 9 5 WZW 1016,6 17 0,0
20.09.2020 11:00:00 16,2 15,4 5 3 ZZW 1016,6 15 -
20.09.2020 10:00:00 15,3 15,0 4 2 ZZW 1016,6 15 0,2
20.09.2020 09:00:00 14,9 14,4 5 3 Z 1016,6 2,8 0,8
20.09.2020 08:00:00 14,9 14,4 4 2 ZZW 1016,2 8 -
20.09.2020 07:00:00 15,0 14,4 5 3 ZW 1016,2 7 2,0
20.09.2020 06:00:00 15,2 14,2 5 3 ZZW 1016,2 17 0,0
20.09.2020 05:00:00 15,2 14,2 4 2 ZZW 1016,4 15 -
20.09.2020 04:00:00 15,5 14,2 4 2 Z 1016,6 18 0,0
20.09.2020 03:00:00 15,5 14,0 5 3 Z 1016,8 20 0,0
20.09.2020 02:00:00 15,6 14,0 4 2 ZZW 1016,8 15 -
20.09.2020 01:00:00 15,6 13,6 8 4 ZZW 1016,8 20 0,0
20.09.2020 00:00:00 15,7 13,5 4 2 ZW 1017,0 20 0,0
19.09.2020 23:00:00 15,7 13,0 9 5 WZW 1016,8 20 -
19.09.2020 22:00:00 16,3 12,8 9 5 WZW 1016,2 20 0,0
19.09.2020 21:00:00 16,8 12,1 8 4 WZW 1015,3 20 0,0
19.09.2020 20:00:00 18,5 11,3 13 7 W 1014,1 30 -
19.09.2020 19:00:00 19,6 10,3 13 7 W 1013,2 20 0,0
19.09.2020 18:00:00 19,0 13,8 9 5 WZW 1012,9 19 0,0
19.09.2020 17:00:00 19,5 14,9 13 7 W 1012,8 20 -
19.09.2020 16:00:00 16,6 14,1 13 7 W 1013,9 - 1,0
19.09.2020 15:00:00 16,2 14,4 8 4 W 1014,2 20 2,0
19.09.2020 14:00:00 17,3 13,6 13 7 W 1013,9 15 -
19.09.2020 13:00:00 17,7 13,8 16 9 WZW 1013,4 20 0,0
19.09.2020 12:00:00 15,4 14,3 11 6 W 1013,8 20 0,0
19.09.2020 11:00:00 14,9 14,3 11 6 WZW 1012,4 15 -
19.09.2020 10:00:00 14,6 14,0 11 6 WZW 1011,8 - 0,6
19.09.2020 09:00:00 14,3 13,7 9 5 ZW 1010,6 7 3,0
19.09.2020 08:00:00 13,5 13,0 9 5 ZZO 1010,2 2,0 -
19.09.2020 07:00:00 13,7 12,9 5 3 OZO 1010,8 2,4 4,0
19.09.2020 06:00:00 14,1 13,0 5 3 ZZO 1011,1 3,7 1,0
19.09.2020 05:00:00 14,1 12,8 5 3 ZZO 1011,1 20 -
19.09.2020 04:00:00 14,1 12,8 4 2 ZO 1011,5 20 0,0
19.09.2020 03:00:00 13,7 12,4 4 2 ZO 1011,9 20 0,2
19.09.2020 02:00:00 13,9 12,3 5 3 Z 1012,0 15 -
19.09.2020 01:00:00 14,5 11,6 8 4 Z 1012,3 20 0,0
19.09.2020 00:00:00 15,3 10,7 8 4 ZO 1012,1 20 0,0
18.09.2020 23:00:00 14,8 11,2 4 2 O 1012,5 20 -
18.09.2020 22:00:00 14,7 10,9 5 3 Z 1012,1 20 0,4
18.09.2020 21:00:00 15,3 11,1 8 4 Z 1010,9 19 0,2
18.09.2020 20:00:00 16,7 10,1 11 6 ZZO 1010,8 30 -
18.09.2020 19:00:00 17,3 11,8 16 9 Z 1010,8 20 0,0
18.09.2020 18:00:00 22,7 9,5 8 4 ZZO 1007,9 20 0,0
18.09.2020 17:00:00 23,0 9,0 8 4 Z 1008,1 30 -
18.09.2020 16:00:00 23,8 7,8 11 6 ZW 1008,0 20 0,0
18.09.2020 15:00:00 23,2 9,2 9 5 ZZW 1008,9 20 0,0
18.09.2020 14:00:00 22,8 11,2 5 3 Z 1009,0 30 -
18.09.2020 13:00:00 20,8 13,0 5 3 Z 1010,3 20 0,0
18.09.2020 12:00:00 19,2 12,9 9 5 ZZO 1011,3 20 0,0
18.09.2020 11:00:00 16,8 13,5 8 4 ZO 1012,0 25 -
18.09.2020 10:00:00 14,0 13,0 5 3 ZO 1012,0 19 0,2
18.09.2020 09:00:00 14,1 13,0 8 4 ZZO 1011,7 20 0,4
18.09.2020 08:00:00 14,9 13,8 5 3 ZZW 1011,6 8 -
18.09.2020 07:00:00 15,4 14,3 5 3 ZO 1010,1 20 0,8
18.09.2020 06:00:00 15,9 15,1 5 3 ZZO 1010,6 4,7 5,0
18.09.2020 05:00:00 16,0 14,9 5 3 O 1010,2 6 -
18.09.2020 04:00:00 16,4 14,2 2 1 NO 1010,2 20 0,0
18.09.2020 03:00:00 16,4 14,1 8 4 O 1010,9 20 0,0
18.09.2020 02:00:00 16,3 14,1 9 5 O 1011,1 20 -
18.09.2020 01:00:00 16,4 14,6 8 4 ZO 1011,6 20 2,0
18.09.2020 00:00:00 18,4 13,9 9 5 ZW 1012,0 19 0,4
17.09.2020 23:00:00 20,7 11,9 16 9 ZZO 1010,4 15 -
17.09.2020 22:00:00 22,9 12,8 9 5 ZO 1008,8 20 0,0
17.09.2020 21:00:00 23,4 13,0 8 4 ZZO 1008,6 20 0,0
17.09.2020 20:00:00 24,3 12,3 13 7 Z 1008,3 20 -
17.09.2020 19:00:00 25,5 13,0 13 7 ZZO 1007,7 20 0,0
17.09.2020 18:00:00 26,0 12,1 16 9 ZZO 1007,9 20 0,0
17.09.2020 17:00:00 26,9 10,6 11 6 Z 1008,0 30 -
17.09.2020 16:00:00 26,7 10,8 9 5 ZZO 1008,5 20 0,0
17.09.2020 15:00:00 26,3 12,4 15 8 ZO 1009,3 20 0,0
17.09.2020 14:00:00 25,3 12,5 13 7 Z 1010,1 25 -
17.09.2020 13:00:00 24,2 12,8 13 7 Z 1011,1 20 0,0
17.09.2020 12:00:00 21,5 14,4 8 4 OZO 1012,6 20 0,0
17.09.2020 11:00:00 18,1 15,2 2 1 N 1014,1 20 -
17.09.2020 10:00:00 18,3 14,0 4 2 O 1014,3 20 0,0
17.09.2020 09:00:00 18,0 14,5 4 2 O 1014,3 17 0,2
17.09.2020 08:00:00 17,6 13,9 2 1 NNW 1014,1 18 -
17.09.2020 07:00:00 17,8 13,9 2 1 NO 1014,0 20 0,0
17.09.2020 06:00:00 17,8 13,9 4 2 ONO 1014,5 20 0,2
17.09.2020 05:00:00 18,6 13,5 4 2 O 1014,5 15 -
17.09.2020 04:00:00 19,0 13,8 9 5 O 1014,5 20 0,0
17.09.2020 03:00:00 19,3 13,7 8 4 W 1014,7 17 0,2
17.09.2020 02:00:00 21,9 10,1 9 5 OZO 1015,4 15 -
17.09.2020 01:00:00 22,0 9,2 5 3 WZW 1014,2 20 0,0
17.09.2020 00:00:00 22,3 11,1 5 3 ZZO 1014,3 20 0,0
16.09.2020 23:00:00 22,9 10,7 2 1 NO 1013,6 20 -
16.09.2020 22:00:00 23,9 10,6 4 2 WNW 1013,4 20 0,0
16.09.2020 21:00:00 25,2 10,6 2 1 NW 1012,7 20 0,0
16.09.2020 20:00:00 26,7 10,0 2 1 N 1012,1 30 -
16.09.2020 19:00:00 28,0 10,2 2 1 N 1011,6 20 0,0
16.09.2020 18:00:00 29,6 9,2 4 2 NNO 1011,7 20 0,0
16.09.2020 17:00:00 28,6 9,8 4 2 NNW 1012,6 30 -
16.09.2020 16:00:00 30,1 10,6 5 3 W 1012,9 20 0,0
16.09.2020 15:00:00 28,6 9,8 8 4 Z 1014,2 20 0,0
16.09.2020 14:00:00 27,0 11,1 8 4 O 1015,6 30 -
16.09.2020 13:00:00 25,2 11,7 5 3 NO 1016,9 20 0,0

tt = temperatuur
td = dauwpunt
ff = windsnelheid
dd = windrichting
ppp = luchtdruk
vv = zicht
rr = neerslag

Weerstations in de omgeving